Miscellaneous Local Product
Issued by NWS North Platte, NE

Home | Current Version | Previous Version | Text Only | Print | Product List | Glossary On
Versions: 1 2 3 4 5 6 7 8 9 10 11 12 13 14 15 16 17 18 19 20 21 22 23 24 25 26 27 28 29 30 31 32 33 34 35 36 37 38 39 40 41 42 43 44 45 46 47 48 49 50
000
AXUS43 KLBF 222210
MISLBF


WESTERN AND NORTH CENTRAL NEBRASKA HOURLY WEATHER ROUNDUP
NATIONAL WEATHER SERVICE NORTH PLATTE NE
400 PM CST MON DEC 22 2014

***STATIONS NOT REPORTING VARIABLES SUCH AS SKY/WEATHER OR
PRESSURE ARE PROVIDED BY THE NEBRASKA DEPARTMENT OF
ROADS...RAWS...AND APRS NETWORKS...AND ARE NOT UNDER
NATIONAL WEATHER SERVICE QUALITY CONTROL***

...OBSERVATIONS IN AND NEAR THE EASTERN PANHANDLE OF NEBRASKA...

CITY           SKY/WX    TMP DP  RH WIND       PRES   REMARKS
PINE RIDGE     CLOUDY    41  20  43 N21G33    29.54R
CHADRON        PTSUNNY   41  23  48 NW28G41   29.60R
ALLIANCE       MOSUNNY   39  23  52 NW20      29.59R WCI  29
SIDNEY         PTSUNNY   36  22  56 NW20      29.63S WCI  25
WHITECLAY        N/A     40  20  44 W18         N/A  WCI  30
CRESCENT LAKE    N/A     41  20  43 NW20G31     N/A
LISCO            N/A     38  22  51 W29         N/A  WCI  27
BIG SPRINGS      N/A     42  27  55 NW15        N/A
$$

...OBSERVATIONS IN NORTH CENTRAL NEBRASKA...

CITY           SKY/WX    TMP DP  RH WIND       PRES   REMARKS
VALENTINE      LGT SNOW  33  32  96 NW10      29.50S FOG     WCI  25
THEDFORD       CLOUDY    42  29  61 NW12G18   29.50S
AINSWORTH      LGT SNOW  34  32  92 NW16G25   29.49R WCI  24
O`NEILL        CLOUDY    38  35  86 NW21      29.46R WCI  28
BROKEN BOW     MOCLDY    42  33  70 N22G31    29.50R
BROWNLEE         N/A     37  32  81 NW30        N/A  WCI  24
SPRINGVIEW       N/A     36  30  80 W13         N/A  WCI  27
BREWSTER         N/A     38  32  79 NW21        N/A  WCI  28
ROSE             N/A     38  35  90 SW14        N/A  WCI  29
SARGENT          N/A     39  33  78 W9G17       N/A  WCI  33
COMSTOCK         N/A     42  34  74 NW17        N/A
CHAMBERS         N/A     38  32  79 NW6G18      N/A  WCI  33
EWING            N/A     38  35  90 CALM        N/A
$$

...OBSERVATIONS IN SOUTHWEST NEBRASKA AND FAR NORTHEAST COLORADO...

CITY           SKY/WX    TMP DP  RH WIND       PRES   REMARKS
WRAY           FAIR      40  28  64 W14       29.64R WCI  32
HOLYOKE        FAIR      41  27  56 NW9       29.63R
IMPERIAL       SUNNY     43  22  43 NW22G36   29.59R
OGALLALA       MOSUNNY   42  26  53 NW20G26   29.58R
NORTH PLATTE   CLOUDY    47  24  40 NW23G30   29.53S
MCCOOK         MOSUNNY   48  24  39 NW25G33   29.56R
LEXINGTON      CLOUDY    46  30  53 NW18      29.51R
PAXTON           N/A     43  29  57 W13         N/A
BRADY            N/A     45  27  49 SW8G22      N/A
GOTHENBURG       N/A     46  24  41 NW15        N/A
CALLAWAY         N/A     41  29  62 NW16        N/A
$$

...NORTH PLATTE AREA...

CITY           SKY/WX    TMP DP  RH WIND       PRES   REMARKS
AIRPORT        CLOUDY    47  24  40 NW23G30   29.53S
$$

...SOME WEATHER OBSERVATIONS FROM AROUND THE REGION...

CITY           SKY/WX    TMP DP  RH WIND       PRES   REMARKS
DENVER         SNOW      29  27  92 N17       29.72R VSB 1/4 WCI  17
LARAMIE        LGT SNOW  23  18  81 NW26G37   29.67R WCI   6
CHEYENNE       PTSUNNY   31  19  61 NW20G30   29.66R WCI  19
SCOTTSBLUFF    PTSUNNY   35  26  69 NW22G38   29.65R WCI  23
RAPID CITY     CLOUDY    38  23  55 NW43G54   29.52R WCI  24
PIERRE         CLOUDY    32  29  88 NW20G31   29.47R WCI  20
WINNER         FLURRIES  35  32  88 NW17      29.47R WCI  25
SIOUX FALLS    LGT RAIN  38  36  92 NW7       29.41R VSB 1/2 WCI  33
OMAHA          LGT RAIN  43  42  97 CALM      29.42R FOG
GRAND ISLAND   CLOUDY    45  30  55 NW30G38   29.48R
KANSAS CITY    LGT RAIN  46  45  96 W7        29.43S
WICHITA        PTSUNNY   53  35  50 NW10      29.55R
HAYS           MOSUNNY   52  25  35 NW18G25   29.56R
LIBERAL        MOSUNNY   50  25  37 N9        29.66R
GOODLAND       MOSUNNY   43  23  45 NW21      29.64R
$$



USA.gov is the U.S. government's official web portal to all federal, state and local government web resources and services.